Regional Weather Roundup
Issued by NWS

Home | Current Version | Previous Version | Text Only | Print | Product List | Glossary Off
Versions: 1 2 3 4 5 6 7 8 9 10 11 12 13 14 15 16 17 18 19 20 21 22 23 24 25 26 27 28 29 30 31 32 33 34 35 36 37 38 39 40 41 42 43 44 45 46 47 48 49 50

000
ASUS45 KBOI 092110
RWRID
WEATHER ROUNDUP FOR IDAHO
NATIONAL WEATHER SERVICE BOISE ID
300 PM MDT WED JUL 09 2014

NOTE: "FAIR" INDICATES FEW OR NO CLOUDS BELOW 12000 FEET
WITH NO SIGNIFICANT WEATHER AND/OR OBSTRUCTIONS TO VISIBILITY

IDZ012-014-092200-
SOUTHWEST IDAHO


CITY           SKY/WX    TMP DP  RH WIND       PRES   REMARKS
BOISE          CLOUDY    90  43  19 NW26      29.95S
CALDWELL       CLOUDY    88  52  29 NW13      29.98R
MOUNTAIN HOME  MOSUNNY   96  42  15 NW32G38   29.91F HX  92
$$

IDZ016-017-092200-
SOUTHCENTRAL IDAHO


CITY           SKY/WX    TMP DP  RH WIND       PRES   REMARKS
BURLEY         MOSUNNY   87  53  31 W13G21    29.96F
JEROME         MOSUNNY   93  47  20 SW13      29.98F
TWIN FALLS     MOSUNNY   91  41  17 W17       29.98F
$$

IDZ019>023-092200-
SOUTHEAST IDAHO


CITY           SKY/WX    TMP DP  RH WIND       PRES   REMARKS
IDAHO FALLS    PTSUNNY   88  46  23 SW10      30.00F
POCATELLO      SUNNY     92  50  23 W16G22    29.98F
REXBURG        MOSUNNY   87  44  22 SW13      30.01F
$$

IDZ006-010-011-018-031-032-092200-
CENTRAL IDAHO MOUNTAINS


CITY           SKY/WX    TMP DP  RH WIND       PRES   REMARKS
MCCALL         LGT RAIN  69  55  60 SE6       30.13R
HAILEY         PTSUNNY   88  48  25 E10       30.03F
STANLEY          N/A     80  39  23 N10       30.15F
SALMON         CLOUDY    82  46  28 CALM      29.94F
CHALLIS        CLOUDY    88  37  16 N8        30.00F
$$

IDZ002-004-006-007-026-092200-
NORTHERN IDAHO


CITY           SKY/WX    TMP DP  RH WIND       PRES   REMARKS
LEWISTON       MOSUNNY   94  54  25 VRB3      29.83F HX  92
LOWELL           N/A     79  67  66 CALM      29.86F
COEUR D`ALENE  PTSUNNY   88  59  37 S13       29.86F
MULLAN PASS    PTSUNNY   73  48  41 CALM      30.12S
$$



USA.gov is the U.S. government's official web portal to all federal, state and local government web resources and services.